#timestamp,LO_Frequency,Hit,StdDev 
1681797615.1,286046992.4,Y
1681797616.0,286046992.4,P
1681797635.8,286046995.0,P
1681797655.6,286046996.2,P
1681797675.5,286046996.1,N
1681797695.3,286046994.0,Y
1681797715.1,286046998.4,P
1681797735.9,286046999.4,N
1681797755.7,286046996.8,N
1681797775.6,286046999.6,N
1681797795.4,286046999.7,N
1681797815.2,286047002.5,N
1681797835.1,286047000.5,N
1681797836.0,286047000.5,N
1681797855.8,286047000.7,N
1681797875.7,286047000.9,N
1681797895.5,286047001.1,N
1681797915.3,286047000.4,N
1681797935.2,286047000.5,N
1681797955.0,286046999.9,N
1681797955.9,286046999.9,N
1681797975.8,286046998.8,N
1681797995.6,286046999.2,N
1681798015.4,286046997.8,N
1681798035.3,286046994.9,Y
1681798055.1,286046995.4,P
1681798075.8,286046997.6,N
1681798095.7,286046994.9,P
1681798115.5,286046998.0,N
1681798135.3,286046997.5,N
1681798155.2,286046996.9,N
1681798175.0,286046997.7,N
1681798175.9,286046997.7,N
1681798195.8,286046996.6,N
1681798215.6,286046996.9,N
1681798235.4,286046999.0,N
1681798255.3,286046996.5,N
1681798275.1,286046996.8,N
1681798295.8,286046996.9,N
1681798315.7,286046999.5,N
1681798335.5,286046998.4,N
1681798355.4,286047000.7,N
1681798375.2,286046998.7,N
1681798395.0,286046998.1,N
1681798395.9,286046998.1,N
1681798415.8,286047002.8,N
1681798435.6,286047000.0,N
1681798455.4,286047001.2,N
1681798475.3,286046996.5,N
1681798495.1,286046999.1,N
1681798515.9,286046994.9,N
1681798535.7,286046995.0,N
1681798555.5,286046994.2,Y
1681798575.4,286046998.0,P
1681798595.2,286046997.7,P
1681798615.0,286046998.8,P
1681798616.0,286046998.8,N
1681798635.8,286046996.5,Y
1681798655.6,286046997.2,P
1681798675.5,286046999.3,N
1681798695.3,286046998.2,N
1681798715.1,286046998.6,N
1681798735.9,286047000.9,N
1681798755.7,286047000.0,N
1681798775.6,286046998.5,N
1681798795.4,286047000.8,N
1681798815.2,286047001.0,N
1681798835.1,286046998.7,N
1681798836.0,286046998.7,N
1681798855.8,286046998.3,N
1681798875.6,286047001.1,N
1681798895.5,286047000.6,N
1681798915.3,286046999.7,N
1681798935.2,286047001.7,N
1681798955.9,286047002.5,N
1681798975.7,286047002.3,N
1681798995.6,286047001.8,N
1681799015.4,286047001.8,N
1681799035.2,286047003.6,N
1681799055.1,286047005.7,Y
1681799056.0,286047005.7,P
1681799075.8,286047001.8,N
1681799095.7,286047001.5,N
1681799115.5,286047004.3,N
1681799135.3,286047003.2,N
1681799155.2,286047003.9,N
1681799175.0,286047002.2,N
1681799175.9,286047002.2,N
1681799195.7,286047002.6,N
1681799215.6,286047002.2,N
1681799235.4,286047002.1,N
1681799255.3,286047003.1,N
1681799275.1,286047001.8,N
1681799276.0,286047001.8,N
1681799295.8,286047001.9,N
1681799315.7,286047004.3,Y
1681799335.5,286047002.3,P
1681799355.3,286047002.0,P
1681799375.2,286046998.1,P
1681799395.0,286046998.6,N
1681799395.9,286046998.6,N
1681799415.8,286047001.2,N
1681799435.6,286046998.7,N
1681799455.4,286046998.4,N
1681799475.3,286046998.7,N
1681799495.1,286047002.8,N
1681799515.8,286047002.6,N
1681799535.7,286047001.9,N
1681799555.5,286047003.0,N
1681799575.4,286047005.3,N
1681799595.2,286047005.8,N
1681799615.0,286047005.6,N
1681799615.9,286047005.6,N
1681799635.8,286047003.1,N
1681799655.6,286047002.9,N
1681799675.4,286047001.3,N
1681799695.3,286047003.7,N
1681799715.1,286047003.1,N
1681799735.9,286047001.4,N
1681799755.7,286047004.2,N
1681799775.5,286047002.9,N
1681799795.4,286047003.5,N
1681799815.2,286047003.0,N
1681799835.0,286047005.5,N
1681799835.9,286047005.5,N
1681799855.8,286047003.4,N
1681799875.6,286047003.3,N
1681799895.4,286047005.8,N
1681799915.3,286047005.8,N
1681799935.1,286047005.9,N
1681799955.9,286047003.3,N
1681799975.7,286047003.7,N
1681799995.5,286047003.7,N
1681800015.4,286047003.8,N
1681800035.2,286047004.0,N
1681800055.0,286047003.9,N
1681800056.0,286047003.9,N
1681800075.8,286047004.0,Y
1681800095.6,286047000.7,P
1681800115.5,286046999.9,N
1681800135.3,286047000.4,N
1681800155.1,286046999.8,N
1681800175.9,286046999.9,N
1681800195.7,286047000.0,N
1681800215.6,286046999.7,N
1681800235.4,286047002.2,N
1681800255.2,286046999.9,N
1681800275.1,286047000.5,N
1681800276.0,286047000.5,N
1681800295.8,286047000.9,N
1681800315.6,286047002.8,N
1681800335.5,286047001.6,N
1681800355.3,286047001.8,N
1681800375.2,286047004.2,Y
1681800395.9,286047003.7,P
1681800415.7,286047007.6,P
1681800435.6,286047004.7,N
1681800455.4,286047005.4,N
1681800475.3,286047005.5,N
1681800495.1,286047003.3,N
1681800496.0,286047003.3,N
1681800515.8,286047003.4,N
1681800535.7,286047005.6,Y
1681800555.5,286046999.7,P
1681800575.3,286047002.6,N
1681800595.2,286046999.8,N
1681800615.0,286047000.6,N
1681800615.9,286047000.6,N
1681800635.8,286046999.8,N
1681800655.6,286047000.6,N
1681800675.4,286046998.8,N
1681800695.3,286046998.6,N
1681800715.1,286046998.7,N
1681800735.9,286047000.3,N
1681800755.7,286047000.5,N
1681800775.5,286047001.0,N
1681800795.4,286046998.7,N
1681800815.2,286047001.1,N
1681800835.0,286047000.7,N
1681800835.9,286047000.7,N
1681800855.8,286046998.4,N
1681800875.6,286047000.8,N
1681800895.5,286046999.0,N
1681800915.3,286047000.7,N
1681800935.1,286047000.4,N
1681800955.9,286047002.5,N
1681800975.7,286046999.8,N
1681800995.5,286047001.2,N
1681801015.4,286046998.6,N
1681801035.2,286046998.6,N
1681801055.1,286047000.8,N
1681801056.0,286047000.8,N
1681801075.8,286047000.8,N
1681801095.6,286047001.0,N
1681801115.5,286046998.2,N
1681801135.3,286046999.3,N
1681801155.2,286046999.2,N
1681801175.9,286046999.2,N
1681801195.7,286046997.3,N
